Wetterdaten: Woche 25.04.05 - 01.05.05 (KW17)
Datum Zeit Temperatur Luftfeuchte Luftdruck Niederschlag Windrichtung Wind
25.04.2005 00:00 10,0 C 98 % 1009 hPa 0,0 l/m N 0,9 km/h (0 Bft)
25.04.2005 01:00 9,9 C 99 % 1009 hPa 1,0 l/m N-NO 2,8 km/h (1 Bft)
25.04.2005 02:00 9,8 C 100 % 1008 hPa 0,0 l/m N 0,1 km/h (0 Bft)
25.04.2005 03:00 9,4 C 100 % 1008 hPa 0,0 l/m N 0,0 km/h (0 Bft)
25.04.2005 04:00 9,3 C 100 % 1007 hPa 0,0 l/m NW 2,9 km/h (1 Bft)
25.04.2005 05:00 9,2 C 100 % 1007 hPa 0,0 l/m N 0,2 km/h (0 Bft)
25.04.2005 06:00 9,2 C 100 % 1007 hPa 0,0 l/m N 0,0 km/h (0 Bft)
25.04.2005 07:00 9,3 C 100 % 1007 hPa 0,0 l/m N 1,4 km/h (1 Bft)
25.04.2005 08:00 9,4 C 100 % 1008 hPa 0,0 l/m SW 2,9 km/h (1 Bft)
25.04.2005 09:00 9,8 C 100 % 1008 hPa 1,0 l/m S-SW 6,2 km/h (2 Bft)
25.04.2005 10:00 9,8 C 97 % 1008 hPa 0,0 l/m W-SW 14,9 km/h (3 Bft)
25.04.2005 11:00 10,3 C 84 % 1009 hPa 1,0 l/m W-SW 15,3 km/h (3 Bft)
25.04.2005 12:00 10,9 C 78 % 1009 hPa 0,0 l/m SW 18,5 km/h (3 Bft)
25.04.2005 13:00 10,8 C 76 % 1009 hPa 0,0 l/m W-SW 19,4 km/h (3 Bft)
25.04.2005 14:00 11,3 C 72 % 1009 hPa 0,0 l/m SW 24,8 km/h (4 Bft)
25.04.2005 15:00 10,1 C 82 % 1009 hPa 0,0 l/m SW 22,7 km/h (4 Bft)
25.04.2005 16:00 9,4 C 90 % 1010 hPa 1,0 l/m W-SW 14,5 km/h (3 Bft)
25.04.2005 17:00 9,5 C 94 % 1010 hPa 1,0 l/m SW 12,5 km/h (3 Bft)
25.04.2005 18:00 9,4 C 87 % 1011 hPa 0,0 l/m W-SW 12,5 km/h (3 Bft)
25.04.2005 19:00 9,1 C 86 % 1011 hPa 0,0 l/m W-SW 9,4 km/h (2 Bft)
25.04.2005 20:00 9,0 C 83 % 1012 hPa 0,0 l/m W-SW 10,6 km/h (2 Bft)
25.04.2005 21:00 8,8 C 82 % 1013 hPa 0,0 l/m W-SW 9,2 km/h (2 Bft)
25.04.2005 22:00 8,7 C 80 % 1013 hPa 0,0 l/m W-SW 10,9 km/h (2 Bft)
25.04.2005 23:00 8,8 C 83 % 1013 hPa 0,0 l/m SW 11,9 km/h (2 Bft)
26.04.2005 00:00 8,5 C 86 % 1014 hPa 0,0 l/m SW 13,0 km/h (3 Bft)
26.04.2005 01:00 8,3 C 86 % 1014 hPa 0,0 l/m SW 13,3 km/h (3 Bft)
26.04.2005 02:00 8,1 C 87 % 1014 hPa 0,0 l/m S-SW 12,8 km/h (3 Bft)
26.04.2005 03:00 8,0 C 87 % 1015 hPa 0,0 l/m S-SW 11,5 km/h (2 Bft)
26.04.2005 04:00 7,6 C 91 % 1015 hPa 0,0 l/m S-SW 11,8 km/h (2 Bft)
26.04.2005 05:00 8,0 C 88 % 1015 hPa 0,0 l/m S-SW 12,7 km/h (3 Bft)
26.04.2005 06:00 7,9 C 89 % 1016 hPa 0,0 l/m S-SW 11,5 km/h (2 Bft)
26.04.2005 07:00 7,9 C 90 % 1017 hPa 0,0 l/m S-SW 12,1 km/h (2 Bft)
26.04.2005 08:00 9,0 C 87 % 1017 hPa 0,0 l/m SW 15,6 km/h (3 Bft)
26.04.2005 09:00 10,2 C 78 % 1017 hPa 0,0 l/m SW 17,0 km/h (3 Bft)
26.04.2005 10:00 12,3 C 70 % 1018 hPa 0,0 l/m S-SW 20,4 km/h (4 Bft)
26.04.2005 11:00 13,4 C 63 % 1018 hPa 0,0 l/m S-SW 21,2 km/h (4 Bft)
26.04.2005 12:00 14,5 C 54 % 1018 hPa 0,0 l/m S-SW 22,7 km/h (4 Bft)
26.04.2005 13:00 14,9 C 50 % 1017 hPa 0,0 l/m S-SW 18,2 km/h (3 Bft)
26.04.2005 14:00 13,1 C 61 % 1018 hPa 0,0 l/m W 12,8 km/h (3 Bft)
26.04.2005 15:00 12,9 C 67 % 1018 hPa 0,0 l/m W 14,4 km/h (3 Bft)
26.04.2005 16:00 14,7 C 51 % 1018 hPa 0,0 l/m W 15,6 km/h (3 Bft)
26.04.2005 17:00 14,8 C 51 % 1018 hPa 0,0 l/m W 10,9 km/h (2 Bft)
26.04.2005 18:00 15,9 C 44 % 1017 hPa 0,0 l/m W-SW 10,9 km/h (2 Bft)
26.04.2005 19:00 14,7 C 47 % 1017 hPa 0,0 l/m S-SW 2,2 km/h (1 Bft)
26.04.2005 20:00 12,8 C 58 % 1017 hPa 0,0 l/m N 0,0 km/h (0 Bft)
26.04.2005 21:00 10,5 C 68 % 1017 hPa 0,0 l/m N 0,0 km/h (0 Bft)
26.04.2005 22:00 8,9 C 75 % 1017 hPa 0,0 l/m N 0,0 km/h (0 Bft)
26.04.2005 23:00 7,8 C 80 % 1017 hPa 0,0 l/m N 0,0 km/h (0 Bft)
27.04.2005 00:00 6,9 C 85 % 1017 hPa 0,0 l/m N 0,0 km/h (0 Bft)
27.04.2005 01:00 6,8 C 88 % 1017 hPa 0,0 l/m N 0,0 km/h (0 Bft)
27.04.2005 02:00 6,6 C 90 % 1017 hPa 0,0 l/m N 0,0 km/h (0 Bft)
27.04.2005 03:00 6,5 C 92 % 1017 hPa 0,0 l/m N 0,0 km/h (0 Bft)
27.04.2005 04:00 6,7 C 94 % 1017 hPa 1,0 l/m SW 0,9 km/h (0 Bft)
27.04.2005 05:00 8,2 C 96 % 1017 hPa 0,0 l/m S-SW 8,5 km/h (2 Bft)
27.04.2005 06:00 8,3 C 96 % 1017 hPa 0,0 l/m S-SW 11,7 km/h (2 Bft)
27.04.2005 07:00 9,1 C 86 % 1017 hPa 0,0 l/m SW 18,5 km/h (3 Bft)
27.04.2005 08:00 9,8 C 86 % 1018 hPa 0,0 l/m SW 12,3 km/h (3 Bft)
27.04.2005 09:00 9,8 C 92 % 1019 hPa 2,0 l/m W-SW 8,0 km/h (2 Bft)
27.04.2005 10:00 9,8 C 96 % 1019 hPa 1,0 l/m W-SW 10,8 km/h (2 Bft)
27.04.2005 11:00 9,9 C 96 % 1020 hPa 1,0 l/m W-SW 12,3 km/h (3 Bft)
27.04.2005 12:00 9,6 C 94 % 1020 hPa 2,0 l/m SW 12,6 km/h (3 Bft)
27.04.2005 13:00 9,8 C 97 % 1020 hPa 1,0 l/m SW 13,3 km/h (3 Bft)
27.04.2005 14:00 10,0 C 96 % 1020 hPa 0,0 l/m S-SW 15,0 km/h (3 Bft)
27.04.2005 15:00 10,1 C 96 % 1020 hPa 0,0 l/m SW 13,4 km/h (3 Bft)
27.04.2005 16:00 10,2 C 93 % 1020 hPa 0,0 l/m SW 14,1 km/h (3 Bft)
27.04.2005 17:00 10,0 C 91 % 1020 hPa 1,0 l/m S-SW 16,7 km/h (3 Bft)
27.04.2005 18:00 10,1 C 92 % 1020 hPa 0,0 l/m SW 17,0 km/h (3 Bft)
27.04.2005 19:00 10,0 C 91 % 1020 hPa 0,0 l/m SW 15,9 km/h (3 Bft)
27.04.2005 20:00 9,4 C 93 % 1021 hPa 0,0 l/m SW 14,9 km/h (3 Bft)
27.04.2005 21:00 9,2 C 94 % 1022 hPa 0,0 l/m S-SW 2,7 km/h (1 Bft)
27.04.2005 22:00 9,0 C 96 % 1022 hPa 0,0 l/m S 6,7 km/h (2 Bft)
27.04.2005 23:00 8,7 C 97 % 1023 hPa 0,0 l/m O-SO 5,2 km/h (1 Bft)
28.04.2005 00:00 8,3 C 99 % 1023 hPa 0,0 l/m N 0,0 km/h (0 Bft)
28.04.2005 01:00 8,2 C 99 % 1023 hPa 0,0 l/m N 0,0 km/h (0 Bft)
28.04.2005 02:00 7,8 C 100 % 1023 hPa 0,0 l/m N 0,0 km/h (0 Bft)
28.04.2005 03:00 7,3 C 100 % 1023 hPa 0,0 l/m N 0,0 km/h (0 Bft)
28.04.2005 04:00 6,8 C 100 % 1022 hPa 0,0 l/m N 0,0 km/h (0 Bft)
28.04.2005 05:00 6,5 C 100 % 1023 hPa 0,0 l/m N 0,0 km/h (0 Bft)
28.04.2005 06:00 6,3 C 100 % 1023 hPa 0,0 l/m N 0,0 km/h (0 Bft)
28.04.2005 07:00 6,8 C 100 % 1023 hPa 0,0 l/m N 0,0 km/h (0 Bft)
28.04.2005 08:00 7,6 C 100 % 1024 hPa 0,0 l/m N 0,0 km/h (0 Bft)
28.04.2005 09:00 9,8 C 100 % 1023 hPa 0,0 l/m O 2,8 km/h (1 Bft)
28.04.2005 10:00 12,7 C 73 % 1023 hPa 0,0 l/m O 10,2 km/h (2 Bft)
28.04.2005 11:00 15,0 C 56 % 1023 hPa 0,0 l/m O-NO 6,5 km/h (2 Bft)
28.04.2005 12:00 16,1 C 51 % 1023 hPa 0,0 l/m O 10,8 km/h (2 Bft)
28.04.2005 13:00 17,1 C 46 % 1023 hPa 0,0 l/m O 8,5 km/h (2 Bft)
28.04.2005 14:00 17,8 C 40 % 1023 hPa 0,0 l/m O 8,1 km/h (2 Bft)
28.04.2005 15:00 18,1 C 38 % 1022 hPa 0,0 l/m SW 6,8 km/h (2 Bft)
28.04.2005 16:00 18,6 C 39 % 1022 hPa 0,0 l/m S-SW 6,4 km/h (2 Bft)
28.04.2005 17:00 18,3 C 40 % 1022 hPa 0,0 l/m SW 5,7 km/h (1 Bft)
28.04.2005 18:00 17,5 C 42 % 1021 hPa 0,0 l/m N 0,0 km/h (0 Bft)
28.04.2005 19:00 16,8 C 49 % 1021 hPa 0,0 l/m N 0,0 km/h (0 Bft)
28.04.2005 20:00 15,4 C 59 % 1022 hPa 0,0 l/m N 0,0 km/h (0 Bft)
28.04.2005 21:00 14,2 C 66 % 1022 hPa 0,0 l/m N 0,0 km/h (0 Bft)
28.04.2005 22:00 13,2 C 70 % 1023 hPa 0,0 l/m S-SW 1,8 km/h (1 Bft)
28.04.2005 23:00 12,6 C 75 % 1023 hPa 0,0 l/m N 0,0 km/h (0 Bft)
29.04.2005 00:00 12,2 C 78 % 1023 hPa 0,0 l/m N 0,0 km/h (0 Bft)
29.04.2005 01:00 11,7 C 82 % 1023 hPa 0,0 l/m N 0,0 km/h (0 Bft)
29.04.2005 02:00 11,4 C 84 % 1022 hPa 0,0 l/m N 0,0 km/h (0 Bft)
29.04.2005 03:00 11,0 C 86 % 1022 hPa 0,0 l/m N 0,0 km/h (0 Bft)
29.04.2005 04:00 10,8 C 87 % 1022 hPa 0,0 l/m SO 0,3 km/h (0 Bft)
29.04.2005 05:00 11,0 C 84 % 1022 hPa 0,0 l/m N 0,3 km/h (0 Bft)
29.04.2005 06:00 10,8 C 87 % 1022 hPa 0,0 l/m N 0,0 km/h (0 Bft)
29.04.2005 07:00 10,8 C 88 % 1022 hPa 0,0 l/m N 0,0 km/h (0 Bft)
29.04.2005 08:00 11,4 C 89 % 1022 hPa 0,0 l/m S-SW 1,6 km/h (1 Bft)
29.04.2005 09:00 13,1 C 81 % 1022 hPa 0,0 l/m S 7,4 km/h (2 Bft)
29.04.2005 10:00 15,6 C 68 % 1022 hPa 0,0 l/m O-SO 9,6 km/h (2 Bft)
29.04.2005 11:00 18,2 C 54 % 1022 hPa 0,0 l/m O-SO 9,5 km/h (2 Bft)
29.04.2005 12:00 19,7 C 44 % 1022 hPa 0,0 l/m O-SO 4,7 km/h (1 Bft)
29.04.2005 13:00 20,1 C 44 % 1022 hPa 0,0 l/m O 6,5 km/h (2 Bft)
29.04.2005 14:00 20,3 C 43 % 1022 hPa 0,0 l/m S 10,5 km/h (2 Bft)
29.04.2005 15:00 20,9 C 40 % 1021 hPa 0,0 l/m S-SO 11,6 km/h (2 Bft)
29.04.2005 16:00 21,8 C 36 % 1021 hPa 0,0 l/m O-SO 11,1 km/h (2 Bft)
29.04.2005 17:00 21,5 C 36 % 1021 hPa 0,0 l/m S 7,2 km/h (2 Bft)
29.04.2005 18:00 20,6 C 38 % 1020 hPa 0,0 l/m O-SO 2,8 km/h (1 Bft)
29.04.2005 19:00 20,1 C 40 % 1020 hPa 0,0 l/m O-NO 2,0 km/h (1 Bft)
29.04.2005 20:00 17,8 C 52 % 1020 hPa 0,0 l/m N 0,0 km/h (0 Bft)
29.04.2005 21:00 15,7 C 60 % 1021 hPa 0,0 l/m N 0,0 km/h (0 Bft)
29.04.2005 22:00 14,7 C 67 % 1021 hPa 0,0 l/m N 0,0 km/h (0 Bft)
29.04.2005 23:00 13,9 C 72 % 1020 hPa 0,0 l/m W-NW 3,8 km/h (1 Bft)
30.04.2005 00:00 12,9 C 77 % 1020 hPa 0,0 l/m N 0,4 km/h (0 Bft)
30.04.2005 01:00 12,3 C 82 % 1020 hPa 0,0 l/m N 0,0 km/h (0 Bft)
30.04.2005 02:00 11,4 C 86 % 1020 hPa 0,0 l/m N 0,0 km/h (0 Bft)
30.04.2005 03:00 10,3 C 88 % 1020 hPa 0,0 l/m N 0,0 km/h (0 Bft)
30.04.2005 04:00 9,4 C 90 % 1020 hPa 0,0 l/m N 0,0 km/h (0 Bft)
30.04.2005 05:00 8,7 C 92 % 1020 hPa 0,0 l/m N 0,0 km/h (0 Bft)
30.04.2005 06:00 8,1 C 93 % 1019 hPa 0,0 l/m N 0,0 km/h (0 Bft)
30.04.2005 07:00 9,0 C 96 % 1019 hPa 0,0 l/m N 0,0 km/h (0 Bft)
30.04.2005 08:00 12,1 C 90 % 1019 hPa 0,0 l/m N 0,0 km/h (0 Bft)
30.04.2005 09:00 16,0 C 62 % 1019 hPa 0,0 l/m O-SO 6,6 km/h (2 Bft)
30.04.2005 10:00 19,7 C 48 % 1019 hPa 0,0 l/m S 5,4 km/h (1 Bft)
30.04.2005 11:00 22,2 C 42 % 1018 hPa 0,0 l/m O-SO 6,4 km/h (2 Bft)
30.04.2005 12:00 23,7 C 35 % 1018 hPa 0,0 l/m O 6,6 km/h (2 Bft)
30.04.2005 13:00 24,4 C 34 % 1018 hPa 0,0 l/m S-SW 8,9 km/h (2 Bft)
30.04.2005 14:00 24,6 C 33 % 1017 hPa 0,0 l/m N 8,7 km/h (2 Bft)
30.04.2005 15:00 24,6 C 33 % 1017 hPa 0,0 l/m N-NW 8,3 km/h (2 Bft)
30.04.2005 16:00 24,8 C 32 % 1016 hPa 0,0 l/m S-SW 5,6 km/h (1 Bft)
30.04.2005 17:00 25,3 C 30 % 1016 hPa 0,0 l/m S 8,5 km/h (2 Bft)
30.04.2005 18:00 25,4 C 30 % 1015 hPa 0,0 l/m O-SO 6,6 km/h (2 Bft)
30.04.2005 19:00 23,5 C 36 % 1015 hPa 0,0 l/m SO 0,3 km/h (0 Bft)
30.04.2005 20:00 20,4 C 46 % 1015 hPa 0,0 l/m N 0,0 km/h (0 Bft)
30.04.2005 21:00 17,6 C 52 % 1015 hPa 0,0 l/m N 0,0 km/h (0 Bft)
30.04.2005 22:00 15,7 C 60 % 1015 hPa 0,0 l/m N 0,0 km/h (0 Bft)
30.04.2005 23:00 14,2 C 68 % 1015 hPa 0,0 l/m N 0,0 km/h (0 Bft)
01.05.2005 00:00 13,2 C 70 % 1015 hPa 0,0 l/m N 0,0 km/h (0 Bft)
01.05.2005 01:00 12,0 C 75 % 1015 hPa 0,0 l/m N 0,0 km/h (0 Bft)
01.05.2005 02:00 11,1 C 80 % 1015 hPa 0,0 l/m N 0,0 km/h (0 Bft)
01.05.2005 03:00 10,5 C 86 % 1015 hPa 0,0 l/m N 0,0 km/h (0 Bft)
01.05.2005 04:00 10,4 C 88 % 1015 hPa 0,0 l/m N 0,0 km/h (0 Bft)
01.05.2005 05:00 10,2 C 90 % 1015 hPa 0,0 l/m N 0,0 km/h (0 Bft)
01.05.2005 06:00 10,0 C 91 % 1016 hPa 0,0 l/m N 0,0 km/h (0 Bft)
01.05.2005 07:00 10,7 C 92 % 1016 hPa 0,0 l/m N 0,0 km/h (0 Bft)
01.05.2005 08:00 13,5 C 80 % 1016 hPa 0,0 l/m S 5,9 km/h (2 Bft)
01.05.2005 09:00 16,9 C 62 % 1016 hPa 0,0 l/m S 11,0 km/h (2 Bft)
01.05.2005 10:00 20,3 C 52 % 1016 hPa 0,0 l/m S 11,1 km/h (2 Bft)
01.05.2005 11:00 22,6 C 48 % 1016 hPa 0,0 l/m S 13,9 km/h (3 Bft)
01.05.2005 12:00 24,6 C 40 % 1016 hPa 0,0 l/m S 13,9 km/h (3 Bft)
01.05.2005 13:00 25,6 C 32 % 1016 hPa 0,0 l/m W-SW 13,2 km/h (3 Bft)
01.05.2005 14:00 26,1 C 31 % 1015 hPa 0,0 l/m S-SW 15,8 km/h (3 Bft)
01.05.2005 15:00 26,6 C 31 % 1015 hPa 0,0 l/m S-SW 15,8 km/h (3 Bft)
01.05.2005 16:00 26,6 C 31 % 1015 hPa 0,0 l/m S-SW 14,4 km/h (3 Bft)
01.05.2005 17:00 26,7 C 31 % 1015 hPa 0,0 l/m W-SW 11,8 km/h (2 Bft)
01.05.2005 18:00 26,6 C 29 % 1015 hPa 0,0 l/m S-SW 10,6 km/h (2 Bft)
01.05.2005 19:00 24,9 C 32 % 1015 hPa 0,0 l/m S-SW 3,8 km/h (1 Bft)
01.05.2005 20:00 21,8 C 44 % 1015 hPa 0,0 l/m N 0,0 km/h (0 Bft)
01.05.2005 21:00 18,8 C 52 % 1015 hPa 0,0 l/m N 0,0 km/h (0 Bft)
01.05.2005 22:00 16,6 C 59 % 1016 hPa 0,0 l/m N 0,0 km/h (0 Bft)
01.05.2005 23:00 15,1 C 67 % 1016 hPa 0,0 l/m N 0,0 km/h (0 Bft)
Min-Datum _ 28.04.05 30.04.05 25.04.05 - - 25.04.05
_ Min-Zeit 06:11 16:56 03:14 - - 00:00
Minimum _ 6,3 C 28 % 1007 hPa - - 0,0 km/h (0 Bft)
Max-Datum _ 01.05.05 25.04.05 28.04.05 27.04.05 - 25.04.05
_ Max-Zeit 17:31 01:45 08:29 09:01 - 15:06
Maximum _ 27,0 C 100 % 1024 hPa 2,0 l/m - 45,4 km/h
SW (6 Bft)
Durchschnitt _ 13,3 C 73 % 1018 hPa #14,0 l/m S-SW 6,6 km/h (2 Bft)

Durchschnitt Minimum Temp.12,9 C
Durchschnitt Maximum Temp.13,8 C